Tracking 19969 objects as of 12-Nov-2019
Live streaming from Space Station
objects crossing your sky now
Track the group of recently launched Starlink satellites

FLOCK 2K 48

Track FLOCK 2K 48 now!
10-day predictions
FLOCK 2K 48 is classified as:


NORAD ID: 42855
Int'l Code: 2017-042AG
Perigee: 444.5 km
Apogee: 459.1 km
Inclination: 96.9 °
Period: 93.5 minutes
Semi major axis: 6822 km
RCS: Unknown
Launch date: July 14, 2017
Source: United States (US)
Launch site: TYURATAM MISSILE AND SPACE COMPLEX (TTMTR)
aabbcc
Your satellite tracking list
Your tracking list is empty




NASA's NSSDC Master Catalog

Two Line Element Set (TLE):
1 42855U 17042AG  19315.90111421 +.00006320 +00000-0 +15756-3 0  9994
2 42855 096.9176 190.8100 0010724 056.2774 303.9494 15.40479425130465
Source of the keplerian elements: AFSPC